Weather History for K1A5 - April, 2014

Change the Weather History Date:

Wednesday, April 16, 2014

  Actual Average (KTOC) Record (KTOC)
Temperature  
Mean Temperature 43 °F -  
Max Temperature 61 °F 73 °F 61 °F (2014)
Min Temperature 25 °F 46 °F 31 °F (2014)
Degree Days  
Heating Degree Days 22    
Moisture  
Dew Point 21 °F    
Average Humidity 47    
Maximum Humidity 90    
Minimum Humidity 16    
Precipitation  
Precipitation 0.00 in - - ()
Sea Level Pressure  
Sea Level Pressure 30.24 in    
Wind  
Wind Speed 4 mph (SW)    
Max Wind Speed 9 mph    
Max Gust Speed 18 mph    
Visibility 10 miles    
Events      
Averages and records for this station are not official NWS values.
T = Trace of Precipitation, MM = Missing Value Source: NWS Daily Summary

Daily Weather History Graph

Daily Weather History Graph

Search for Another Location

Airport or City:

Trip Planner

Search our weather history database for the weather conditions in past years. The results will help you decide how hot, cold, wet, or windy it might be!

Date:

Astronomy

Apr. 16, 2014 Rise Set
Actual Time 7:00 AM EDT 8:07 PM EDT
Civil Twilight 6:34 AM EDT 8:33 PM EDT
Nautical Twilight 6:02 AM EDT 9:04 PM EDT
Astronomical Twilight 5:30 AM EDT 9:37 PM EDT
Moon 9:46 PM EDT (4/16) 7:49 AM EDT (4/16)
Length of Visible Light 13h 59m
Length of Day
13h 07m
Full, 98% of the Moon is Illuminated
Apr 16
Full
Apr 22
Last Quarter
Apr 29
New
May 6
First Quarter
May 14
Full

Hourly Weather History & Observations

Time (EDT) Temp. Windchill Dew Point Humidity Pressure Visibility Wind Dir Wind Speed Gust Speed Precip Events Conditions
12:15 AM 33.3 °F 28.9 °F 20.3 °F 59% 30.09 in 10.0 mi NW 4.6 mph - N/A   Clear
12:35 AM 32.9 °F 26.7 °F 20.1 °F 59% 30.12 in 10.0 mi West 6.9 mph - N/A   Clear
12:55 AM 32.7 °F 26.4 °F 20.1 °F 60% 30.13 in 10.0 mi NW 6.9 mph - N/A   Clear
1:15 AM 32.7 °F 25.7 °F 20.1 °F 60% 30.14 in 10.0 mi NW 8.1 mph - N/A   Clear
1:35 AM 32.4 °F 29.1 °F 20.1 °F 61% 30.15 in 10.0 mi WNW 3.5 mph - N/A   Clear
1:55 AM 32.2 °F 27.7 °F 20.1 °F 61% 30.15 in 10.0 mi WNW 4.6 mph - N/A   Clear
2:15 AM 32.0 °F 27.5 °F 20.3 °F 62% 30.16 in 10.0 mi WNW 4.6 mph - N/A   Clear
2:35 AM 32.0 °F 28.7 °F 20.1 °F 62% 30.16 in 10.0 mi WNW 3.5 mph - N/A   Clear
2:55 AM 32.0 °F 26.4 °F 19.9 °F 61% 30.16 in 10.0 mi NW 5.8 mph - N/A   Clear
3:15 AM 32.0 °F 24.8 °F 20.1 °F 62% 30.16 in 10.0 mi NW 8.1 mph - N/A   Clear
3:35 AM 31.8 °F 27.3 °F 20.3 °F 62% 30.16 in 10.0 mi WNW 4.6 mph - N/A   Clear
3:55 AM 31.6 °F 28.3 °F 20.5 °F 63% 30.16 in 10.0 mi West 3.5 mph - N/A   Clear
4:15 AM 30.6 °F 24.7 °F 21.0 °F 68% 30.17 in 10.0 mi West 5.8 mph - N/A   Clear
4:35 AM 29.3 °F - 21.7 °F 73% 30.18 in 10.0 mi Calm Calm - N/A   Clear
4:55 AM 29.1 °F - 22.5 °F 76% 30.18 in 10.0 mi Calm Calm - N/A   Clear
5:15 AM 28.6 °F - 23.2 °F 80% 30.18 in 10.0 mi Calm Calm - N/A   Clear
5:35 AM 28.0 °F - 22.6 °F 80% 30.19 in 10.0 mi Calm Calm - N/A   Clear
6:15 AM 26.8 °F - 22.5 °F 84% 30.21 in 10.0 mi Calm Calm - N/A   Clear
6:35 AM 26.6 °F - 23.4 °F 88% 30.22 in 10.0 mi Calm Calm - N/A   Clear
6:55 AM 25.9 °F - 22.3 °F 86% 30.23 in 10.0 mi Calm Calm - N/A   Clear
7:15 AM 26.2 °F - 23.7 °F 90% 30.25 in 10.0 mi Calm Calm - N/A   Clear
7:35 AM 26.1 °F - 23.5 °F 90% 30.25 in 10.0 mi Calm Calm - N/A   Clear
7:55 AM 27.9 °F - 24.4 °F 87% 30.26 in 10.0 mi Calm Calm - N/A   Clear
8:15 AM 28.9 °F - 23.9 °F 81% 30.27 in 10.0 mi Calm Calm - N/A   Clear
8:35 AM 30.6 °F - 23.5 °F 75% 30.28 in 10.0 mi Calm Calm - N/A   Clear
8:55 AM 32.4 °F - 23.0 °F 68% 30.27 in 10.0 mi Calm Calm - N/A   Clear
9:15 AM 34.2 °F - 23.5 °F 65% 30.28 in 10.0 mi Calm Calm - N/A   Clear
9:35 AM 35.8 °F - 23.7 °F 62% 30.28 in 10.0 mi Calm Calm - N/A   Clear
9:55 AM 37.8 °F - 22.6 °F 54% 30.29 in 10.0 mi Calm Calm - N/A   Clear
10:15 AM 40.1 °F - 21.0 °F 47% 30.29 in 10.0 mi Calm Calm - N/A   Clear
10:35 AM 41.5 °F - 20.3 °F 43% 30.29 in 10.0 mi Calm Calm - N/A   Clear
10:55 AM 42.4 °F - 19.2 °F 39% 30.30 in 10.0 mi Calm Calm - N/A   Clear
11:15 AM 44.6 °F 43.1 °F 21.7 °F 40% 30.30 in 10.0 mi North 3.5 mph - N/A   Clear
11:35 AM 46.2 °F 45.0 °F 19.8 °F 35% 30.30 in 10.0 mi ENE 3.5 mph - N/A   Clear
11:55 AM 48.6 °F - 21.0 °F 34% 30.29 in 10.0 mi NNE 4.6 mph - N/A   Clear
12:15 PM 50.4 °F - 19.6 °F 30% 30.29 in 10.0 mi NE 3.5 mph - N/A   Clear
12:35 PM 51.8 °F - 20.8 °F 30% 30.28 in 10.0 mi North 3.5 mph - N/A   Clear
12:55 PM 54.3 °F - 24.1 °F 31% 30.27 in 10.0 mi ENE 5.8 mph - N/A   Clear
1:15 PM 56.1 °F - 22.5 °F 27% 30.26 in 10.0 mi Calm Calm - N/A   Clear
1:35 PM 56.5 °F - 18.3 °F 23% 30.25 in 10.0 mi SE 3.5 mph - N/A   Clear
2:15 PM 58.8 °F - 19.9 °F 22% 30.24 in 10.0 mi WSW 9.2 mph - N/A   Clear
2:35 PM 59.9 °F - 19.8 °F 21% 30.24 in 10.0 mi WSW 8.1 mph - N/A   Clear
2:55 PM 59.5 °F - 15.8 °F 18% 30.23 in 10.0 mi South 8.1 mph - N/A   Clear
3:15 PM 60.8 °F - 19.4 °F 20% 30.23 in 10.0 mi SSW 5.8 mph - N/A   Clear
3:35 PM 60.4 °F - 16.0 °F 18% 30.23 in 10.0 mi South 8.1 mph - N/A   Clear
3:55 PM 61.0 °F - 17.4 °F 18% 30.22 in 10.0 mi South 4.6 mph - N/A   Clear
4:15 PM 60.1 °F - 15.1 °F 17% 30.22 in 10.0 mi South 4.6 mph - N/A   Clear
4:35 PM 61.5 °F - 19.2 °F 20% 30.21 in 10.0 mi South 8.1 mph - N/A   Clear
4:55 PM 60.6 °F - 15.6 °F 17% 30.22 in 10.0 mi South 4.6 mph - N/A   Clear
5:15 PM 60.3 °F - 15.4 °F 17% 30.22 in 10.0 mi South 6.9 mph - N/A   Clear
5:35 PM 59.4 °F - 12.4 °F 16% 30.23 in 10.0 mi South 8.1 mph 18.4 mph N/A   Clear
5:55 PM 59.0 °F - 14.2 °F 17% 30.23 in 10.0 mi South 9.2 mph - N/A   Clear
6:15 PM 57.7 °F - 13.5 °F 18% 30.23 in 10.0 mi South 6.9 mph 17.3 mph N/A   Clear
6:35 PM 57.0 °F - 13.5 °F 18% 30.24 in 10.0 mi South 6.9 mph 16.1 mph N/A   Clear
6:55 PM 56.1 °F - 14.7 °F 20% 30.24 in 10.0 mi SSW 4.6 mph - N/A   Clear
7:15 PM 55.2 °F - 14.9 °F 20% 30.25 in 10.0 mi South 5.8 mph - N/A   Clear
7:35 PM 53.8 °F - 16.5 °F 23% 30.26 in 10.0 mi South 3.5 mph - N/A   Clear
7:55 PM 52.2 °F - 17.6 °F 26% 30.26 in 10.0 mi SSW 3.5 mph - N/A   Clear
8:15 PM 50.9 °F - 18.3 °F 28% 30.27 in 10.0 mi Calm Calm - N/A   Clear
8:35 PM 50.0 °F - 19.2 °F 30% 30.29 in 10.0 mi South 3.5 mph - N/A   Clear
8:55 PM 48.7 °F - 20.7 °F 33% 30.30 in 10.0 mi South 3.5 mph - N/A   Clear
9:15 PM 48.2 °F - 20.7 °F 34% 30.31 in 10.0 mi Calm Calm - N/A   Clear
9:35 PM 45.0 °F - 25.3 °F 46% 30.32 in 10.0 mi Calm Calm - N/A   Clear
9:55 PM 43.2 °F - 26.2 °F 51% 30.33 in 10.0 mi Calm Calm - N/A   Clear
10:15 PM 43.7 °F - 24.6 °F 47% 30.34 in 10.0 mi Calm Calm - N/A   Clear
10:35 PM 42.3 °F - 26.2 °F 53% 30.35 in 10.0 mi Calm Calm - N/A   Clear
10:55 PM 40.8 °F - 27.3 °F 59% 30.35 in 10.0 mi Calm Calm - N/A   Clear
11:15 PM 38.7 °F 36.3 °F 26.6 °F 62% 30.35 in 10.0 mi SSW 3.5 mph - N/A   Clear
11:35 PM 41.2 °F - 24.3 °F 51% 30.35 in 10.0 mi Calm Calm - N/A   Clear
11:55 PM 37.4 °F 34.9 °F 27.3 °F 67% 30.36 in 10.0 mi WSW 3.5 mph - N/A   Clear